Simultaneous Nadir Overpasses (SNOs) Predictions

Prediction of SNOs between GOES-17 and NOAA-19 Satellite Orbit:

Table of predicted SNOs for the next 14.0 days since TLE Epoch: 3/30/2024
Index Date Time (GOES-17) GOES-17 Lat,Lon NOAA-19 Lat,Lon Distance(km) Time Diff (sec)
1 03/30/2024 15:59:44 -0.01,-104.69 -0.52,-102.61 237.79 80
2 04/02/2024 04:19:29 0.02,-104.67 -0.58,-107.31 300.96 80
3 04/03/2024 04:04:36 0.03,-104.67 0.09,-104.33 37.80 80
4 04/04/2024 03:52:22 0.03,-104.66 0.77,-101.36 376.63 80
5 04/05/2024 16:24:05 -0.02,-104.67 0.99,-108.97 491.75 80
6 04/06/2024 16:11:52 0.01,-104.67 0.30,-106.00 151.47 80
7 04/07/2024 16:02:18 0.02,-104.67 -0.35,-103.02 188.20 80
8 04/10/2024 04:22:03 -0.01,-104.66 -0.72,-107.72 350.00 80
9 04/11/2024 04:09:50 -0.00,-104.66 -0.02,-104.75 11.03 80
10 04/12/2024 03:54:56 0.01,-104.65 0.68,-101.78 327.93 80
